TimePST,TemperatureF,Dew PointF,Humidity,Sea Level PressureIn,VisibilityMPH,Wind Direction,Wind SpeedMPH,Gust SpeedMPH,PrecipitationIn,Events,Conditions,WindDirDegrees,DateUTC
12:53 AM,32.0,30.9,96,30.01,10.0,Calm,Calm,-,N/A,,Clear,0,2012-11-07 08:53:00
1:53 AM,33.1,32.0,96,29.98,10.0,Calm,Calm,-,N/A,,Clear,0,2012-11-07 09:53:00
2:53 AM,32.0,30.9,96,29.99,8.0,Calm,Calm,-,N/A,,Clear,0,2012-11-07 10:53:00
3:53 AM,33.1,33.1,100,29.99,10.0,Calm,Calm,-,N/A,,Clear,0,2012-11-07 11:53:00
4:53 AM,34.0,33.1,96,30.01,10.0,Calm,Calm,-,N/A,,Scattered Clouds,0,2012-11-07 12:53:00
5:53 AM,37.0,35.1,93,30.00,10.0,Calm,Calm,-,N/A,,Mostly Cloudy,0,2012-11-07 13:53:00
6:53 AM,39.9,37.9,93,30.03,10.0,North,6.9,-,N/A,,Overcast,350,2012-11-07 14:53:00
7:20 AM,42.8,39.2,87,30.03,10.0,North,3.5,-,N/A,,Overcast,10,2012-11-07 15:20:00
7:53 AM,41.0,37.0,86,30.07,10.0,NNW,17.3,21.9,0.00,Rain,Light Rain,340,2012-11-07 15:53:00
8:08 AM,39.2,35.6,87,30.05,10.0,NNW,15.0,24.2,0.00,Rain,Light Rain,340,2012-11-07 16:08:00
8:45 AM,39.2,35.6,87,30.06,10.0,NNW,21.9,28.8,0.01,Rain,Light Rain,330,2012-11-07 16:45:00
8:53 AM,39.0,35.1,86,30.10,10.0,NNW,19.6,28.8,0.01,Rain,Light Rain,340,2012-11-07 16:53:00
9:53 AM,39.9,34.0,79,30.13,10.0,NNW,19.6,25.3,0.02,,Overcast,330,2012-11-07 17:53:00
10:00 AM,41.0,33.8,76,30.08,10.0,NNW,11.5,25.3,N/A,,Overcast,340,2012-11-07 18:00:00
10:53 AM,42.1,34.0,73,30.12,10.0,NNW,10.4,-,0.00,,Overcast,340,2012-11-07 18:53:00
11:53 AM,44.1,32.0,63,30.09,10.0,NW,17.3,21.9,N/A,,Overcast,320,2012-11-07 19:53:00
12:53 PM,45.0,30.0,56,30.08,10.0,NNW,12.7,20.7,N/A,,Mostly Cloudy,330,2012-11-07 20:53:00
1:53 PM,45.0,30.9,58,30.08,10.0,NNW,15.0,20.7,N/A,,Clear,330,2012-11-07 21:53:00
2:53 PM,44.1,30.9,60,30.08,10.0,NW,15.0,-,N/A,,Scattered Clouds,310,2012-11-07 22:53:00
3:53 PM,41.0,30.0,65,30.09,10.0,NNW,5.8,-,N/A,,Clear,340,2012-11-07 23:53:00
4:53 PM,39.0,28.0,65,30.07,10.0,Calm,Calm,-,N/A,,Partly Cloudy,0,2012-11-08 00:53:00
5:53 PM,35.1,28.0,76,30.07,10.0,West,9.2,-,N/A,,Clear,260,2012-11-08 01:53:00
6:53 PM,33.1,28.0,82,30.05,10.0,West,6.9,-,N/A,,Clear,260,2012-11-08 02:53:00
7:53 PM,30.0,27.0,88,30.04,10.0,Calm,Calm,-,N/A,,Clear,0,2012-11-08 03:53:00
8:53 PM,25.0,23.0,92,30.03,10.0,Calm,Calm,-,N/A,,Clear,0,2012-11-08 04:53:00
9:53 PM,23.0,21.0,92,30.01,10.0,Calm,Calm,-,N/A,,Clear,0,2012-11-08 05:53:00
10:53 PM,25.0,23.0,92,29.97,10.0,Calm,Calm,-,N/A,,Clear,0,2012-11-08 06:53:00
11:53 PM,23.0,21.9,96,29.95,10.0,Calm,Calm,-,N/A,,Clear,0,2012-11-08 07:53:00